Вернуться в каталог

SL-16 DEB

АктивенLEO
NORAD 25254·DEBRIS·🇷🇺 Russia

Запущен Sep 16, 1993 с Baikonur Cosmodrome

Loading…

Ближайшие Пролёты (ближайшие 24 часа)

TLE

СвежийSource: Space-Track

Эпоха: Sep 14, 2026, 06:42 UTC

1 25254U 93059H   26257.27978837  .00000169  00000-0  95002-4 0  9993
2 25254  70.9868 198.2576 0016310 200.2946 310.2414 14.23746972510264

Отслеживайте SL-16 DEB в реальном времени с AllMySat

Download on the App Store